Simultaneous Nadir Overpasses (SNOs) Predictions

Prediction of SNOs between FY3D and TERRA Satellite Orbit:

Table of predicted SNOs for the next 14.0 days since TLE Epoch: 4/25/2020
Index Date (FY3D) Time (FY3D) Lat,Lon (FY3D) SZA (FY3D ) Date (TERRA) Time (TERRA) Lat,Lon (TERRA) SZA (TERRA ) Distance(km) Time Diff (sec)
1 04/25/2020 08:22:59 -69.64,-127.63 123.85 04/25/2020 08:24:07 -69.52,-125.87 123.98 69.59 68
2 04/25/2020 09:13:29 68.79, 40.88 55.28 04/25/2020 09:13:45 68.81, 40.85 55.29 2.24 16
3 04/25/2020 10:04:10 -68.68,-151.66 124.84 04/25/2020 10:03:15 -68.69,-151.67 124.84 0.88 55
4 04/28/2020 00:39:23 -69.70, -11.80 124.65 04/28/2020 00:40:31 -69.62, -9.85 124.73 76.19 68
5 04/28/2020 01:29:52 68.79, 156.79 54.43 04/28/2020 01:30:11 68.79, 156.72 54.43 2.63 19
6 04/28/2020 02:20:33 -68.68, -35.75 125.70 04/28/2020 02:19:41 -68.68, -35.79 125.70 1.53 52
7 04/30/2020 16:55:49 -69.81, 103.94 125.36 04/30/2020 16:56:56 -69.71, 106.18 125.46 86.57 67
8 04/30/2020 17:46:17 68.85, -87.38 53.66 04/30/2020 17:46:37 68.83, -87.34 53.64 2.52 20
9 04/30/2020 18:36:57 -68.69, 80.15 126.52 04/30/2020 18:36:08 -68.67, 80.09 126.54 3.57 49
10 05/03/2020 09:12:15 -69.92,-140.32 126.05 05/03/2020 09:13:21 -69.81,-137.81 126.16 96.88 66
11 05/03/2020 10:02:40 68.80, 28.59 52.81 05/03/2020 10:03:04 68.81, 28.53 52.82 2.92 24
12 05/03/2020 10:53:21 -68.69,-163.95 127.31 05/03/2020 10:52:34 -68.70,-163.97 127.30 1.67 47
13 05/06/2020 02:19:05 68.86, 144.42 52.11 05/06/2020 02:19:30 68.84, 144.46 52.09 2.43 25
14 05/06/2020 03:09:45 -68.70, -48.05 128.06 05/06/2020 03:09:01 -68.68, -48.11 128.08 3.27 44
15 05/08/2020 18:35:28 68.87, -99.68 51.39 05/08/2020 18:35:55 68.87, -99.62 51.39 2.68 27
16 05/08/2020 19:26:08 -68.71, 67.85 128.79 05/08/2020 19:25:26 -68.71, 67.82 128.78 1.50 42




NCC Satellite Simultaneous Nadir Overpasses (SNOs) Prediction Service
